Location: Beuerbach
(48.1459°N, 10.9174°E)
Time: 00:35:23
(UTC+00:00)

Meteor 1-21 - Pass Details

Date: 13 August 2024
Orbit: 845 x 885 km, 81.2° (Epoch: 09 September)

Event Time Altitude Azimuth Distance (km) Brightness Sun altitude
Rises 00:07:04 0° 348° (NNW) 3,418 8.4 -26.5°
Reaches altitude 10° 00:09:29 10° 348° (NNW) 2,480 7.5 -26.4°
Maximum altitude 00:15:07 89° 266° (W) 857 4.1 -26.1°
Enters shadow 00:15:39 75° 174° (S) 884 4.0 -26.1°
